Wetterdaten: Dienstag, 07.09.2010
Datum Zeit Temp. A. Feuchte A. Luftdruck Regen Wind Richtung Richtung Sonnenschein UV Solar Windben
07.09.2010 00:00 12,7 C 65 % 1013,2 hPa 0,0 mm 8,0 km/h (2 Bft) O-SO 112 0 min 0 UV-I 0 W/m 19,3 km/h (3 Bft)
07.09.2010 00:10 12,6 C 66 % 1013,1 hPa 0,0 mm 8,0 km/h (2 Bft) O 90 0 min 0 UV-I 0 W/m 19,3 km/h (3 Bft)
07.09.2010 00:20 12,6 C 66 % 1013,1 hPa 0,0 mm 6,0 km/h (2 Bft) O-NO 67 0 min 0 UV-I 0 W/m 20,9 km/h (4 Bft)
07.09.2010 00:30 12,6 C 66 % 1013,0 hPa 0,0 mm 6,4 km/h (2 Bft) O 90 0 min 0 UV-I 0 W/m 17,7 km/h (3 Bft)
07.09.2010 00:40 12,5 C 67 % 1012,8 hPa 0,0 mm 8,0 km/h (2 Bft) O 90 0 min 0 UV-I 0 W/m 20,9 km/h (4 Bft)
07.09.2010 00:50 12,4 C 67 % 1012,8 hPa 0,0 mm 6,4 km/h (2 Bft) O 90 0 min 0 UV-I 0 W/m 17,7 km/h (3 Bft)
07.09.2010 01:00 12,3 C 68 % 1012,8 hPa 0,0 mm 6,4 km/h (2 Bft) O 90 0 min 0 UV-I 0 W/m 20,9 km/h (4 Bft)
07.09.2010 01:10 12,2 C 69 % 1012,7 hPa 0,0 mm 4,8 km/h (1 Bft) O 90 0 min 0 UV-I 0 W/m 17,7 km/h (3 Bft)
07.09.2010 01:20 12,2 C 69 % 1012,6 hPa 0,0 mm 3,2 km/h (1 Bft) O 90 0 min 0 UV-I 0 W/m 11,3 km/h (2 Bft)
07.09.2010 01:30 12,1 C 70 % 1012,5 hPa 0,0 mm 6,4 km/h (2 Bft) O 90 0 min 0 UV-I 0 W/m 16,1 km/h (3 Bft)
07.09.2010 01:40 12,1 C 70 % 1012,3 hPa 0,0 mm 4,8 km/h (1 Bft) O 90 0 min 0 UV-I 0 W/m 16,1 km/h (3 Bft)
07.09.2010 01:50 12,1 C 70 % 1012,3 hPa 0,0 mm 6,4 km/h (2 Bft) O 90 0 min 0 UV-I 0 W/m 16,1 km/h (3 Bft)
07.09.2010 02:00 12,1 C 70 % 1012,2 hPa 0,0 mm 8,0 km/h (2 Bft) O 90 0 min 0 UV-I 0 W/m 20,9 km/h (4 Bft)
07.09.2010 02:10 12,1 C 70 % 1012,1 hPa 0,0 mm 8,0 km/h (2 Bft) O 90 0 min 0 UV-I 0 W/m 20,9 km/h (4 Bft)
07.09.2010 02:20 12,1 C 71 % 1012,0 hPa 0,0 mm 6,4 km/h (2 Bft) O 90 0 min 0 UV-I 0 W/m 19,3 km/h (3 Bft)
07.09.2010 02:30 11,9 C 71 % 1011,9 hPa 0,0 mm 6,4 km/h (2 Bft) O 90 0 min 0 UV-I 0 W/m 17,7 km/h (3 Bft)
07.09.2010 02:40 11,9 C 71 % 1011,7 hPa 0,0 mm 8,0 km/h (2 Bft) O 90 0 min 0 UV-I 0 W/m 22,5 km/h (4 Bft)
07.09.2010 02:50 11,8 C 71 % 1011,6 hPa 0,0 mm 8,0 km/h (2 Bft) O 90 0 min 0 UV-I 0 W/m 19,3 km/h (3 Bft)
07.09.2010 03:00 11,8 C 72 % 1011,6 hPa 0,0 mm 3,2 km/h (1 Bft) O 90 0 min 0 UV-I 0 W/m 17,7 km/h (3 Bft)
07.09.2010 03:10 11,7 C 72 % 1011,6 hPa 0,0 mm 4,8 km/h (1 Bft) O 90 0 min 0 UV-I 0 W/m 17,7 km/h (3 Bft)
07.09.2010 03:20 11,6 C 73 % 1011,3 hPa 0,0 mm 4,8 km/h (1 Bft) O 90 0 min 0 UV-I 0 W/m 11,3 km/h (2 Bft)
07.09.2010 03:30 11,4 C 73 % 1011,1 hPa 0,0 mm 4,8 km/h (1 Bft) O 90 0 min 0 UV-I 0 W/m 14,5 km/h (3 Bft)
07.09.2010 03:40 11,4 C 73 % 1011,0 hPa 0,0 mm 4,8 km/h (1 Bft) O 90 0 min 0 UV-I 0 W/m 16,1 km/h (3 Bft)
07.09.2010 03:50 11,3 C 74 % 1010,8 hPa 0,0 mm 3,2 km/h (1 Bft) O 90 0 min 0 UV-I 0 W/m 14,5 km/h (3 Bft)
07.09.2010 04:00 11,2 C 74 % 1010,6 hPa 0,0 mm 4,8 km/h (1 Bft) O 90 0 min 0 UV-I 0 W/m 19,3 km/h (3 Bft)
07.09.2010 04:10 11,2 C 74 % 1010,7 hPa 0,0 mm 6,4 km/h (2 Bft) O 90 0 min 0 UV-I 0 W/m 17,7 km/h (3 Bft)
07.09.2010 04:20 11,2 C 74 % 1010,7 hPa 0,0 mm 4,8 km/h (1 Bft) O 90 0 min 0 UV-I 0 W/m 14,5 km/h (3 Bft)
07.09.2010 04:30 11,1 C 74 % 1010,8 hPa 0,0 mm 4,8 km/h (1 Bft) O 90 0 min 0 UV-I 0 W/m 11,3 km/h (2 Bft)
07.09.2010 04:40 10,9 C 74 % 1010,8 hPa 0,0 mm 1,6 km/h (1 Bft) O-SO 112 0 min 0 UV-I 0 W/m 11,3 km/h (2 Bft)
07.09.2010 04:50 10,8 C 75 % 1010,6 hPa 0,0 mm 1,6 km/h (1 Bft) O-SO 112 0 min 0 UV-I 0 W/m 8,0 km/h (2 Bft)
07.09.2010 05:00 10,6 C 76 % 1010,5 hPa 0,0 mm 3,2 km/h (1 Bft) O-SO 112 0 min 0 UV-I 0 W/m 9,7 km/h (2 Bft)
07.09.2010 05:10 10,6 C 76 % 1010,3 hPa 0,0 mm 3,2 km/h (1 Bft) O-SO 112 0 min 0 UV-I 0 W/m 9,7 km/h (2 Bft)
07.09.2010 05:20 10,6 C 76 % 1010,1 hPa 0,0 mm 4,8 km/h (1 Bft) O-SO 112 0 min 0 UV-I 0 W/m 17,7 km/h (3 Bft)
07.09.2010 05:30 10,7 C 76 % 1010,0 hPa 0,0 mm 4,8 km/h (1 Bft) O 90 0 min 0 UV-I 0 W/m 17,7 km/h (3 Bft)
07.09.2010 05:40 10,7 C 75 % 1009,9 hPa 0,0 mm 8,0 km/h (2 Bft) O 90 0 min 0 UV-I 0 W/m 20,9 km/h (4 Bft)
07.09.2010 05:50 10,8 C 75 % 1009,9 hPa 0,0 mm 6,4 km/h (2 Bft) O 90 0 min 0 UV-I 0 W/m 17,7 km/h (3 Bft)
07.09.2010 06:00 10,7 C 76 % 1009,7 hPa 0,0 mm 8,0 km/h (2 Bft) O 90 0 min 0 UV-I 0 W/m 17,7 km/h (3 Bft)
07.09.2010 06:10 10,7 C 76 % 1009,5 hPa 0,0 mm 8,0 km/h (2 Bft) O 90 0 min 0 UV-I 0 W/m 17,7 km/h (3 Bft)
07.09.2010 06:20 10,7 C 76 % 1009,3 hPa 0,0 mm 8,0 km/h (2 Bft) O 90 0 min 0 UV-I 0 W/m 19,3 km/h (3 Bft)
07.09.2010 06:30 10,7 C 76 % 1009,2 hPa 0,0 mm 8,0 km/h (2 Bft) O-SO 112 0 min 0 UV-I 0 W/m 20,9 km/h (4 Bft)
07.09.2010 06:40 10,7 C 75 % 1009,2 hPa 0,0 mm 8,0 km/h (2 Bft) O 90 0 min 0 UV-I 0 W/m 24,1 km/h (4 Bft)
07.09.2010 06:50 10,7 C 75 % 1009,1 hPa 0,0 mm 8,0 km/h (2 Bft) O 90 0 min 0 UV-I 5 W/m 17,7 km/h (3 Bft)
07.09.2010 07:00 10,7 C 75 % 1009,1 hPa 0,0 mm 6,4 km/h (2 Bft) O-SO 112 0 min 0 UV-I 9 W/m 14,5 km/h (3 Bft)
07.09.2010 07:10 10,7 C 75 % 1009,2 hPa 0,0 mm 6,4 km/h (2 Bft) O-SO 112 0 min 0 UV-I 14 W/m 19,3 km/h (3 Bft)
07.09.2010 07:20 10,7 C 75 % 1009,1 hPa 0,0 mm 6,4 km/h (2 Bft) O-SO 112 0 min 0 UV-I 23 W/m 22,5 km/h (4 Bft)
07.09.2010 07:30 10,8 C 75 % 1008,9 hPa 0,0 mm 8,0 km/h (2 Bft) O 90 0 min 0 UV-I 32 W/m 24,1 km/h (4 Bft)
07.09.2010 07:40 10,8 C 75 % 1008,9 hPa 0,0 mm 6,4 km/h (2 Bft) O 90 0 min 0 UV-I 37 W/m 22,5 km/h (4 Bft)
07.09.2010 07:50 10,8 C 75 % 1008,7 hPa 0,0 mm 8,0 km/h (2 Bft) O-SO 112 0 min 0 UV-I 39 W/m 20,9 km/h (4 Bft)
07.09.2010 08:00 10,8 C 75 % 1008,6 hPa 0,0 mm 8,0 km/h (2 Bft) O-SO 112 0 min 0 UV-I 44 W/m 20,9 km/h (4 Bft)
07.09.2010 08:10 10,9 C 74 % 1008,5 hPa 0,0 mm 9,7 km/h (2 Bft) O-SO 112 0 min 0 UV-I 77 W/m 25,7 km/h (4 Bft)
07.09.2010 08:20 11,1 C 74 % 1008,4 hPa 0,0 mm 6,4 km/h (2 Bft) O 90 10 min 1 UV-I 156 W/m 20,9 km/h (4 Bft)
07.09.2010 08:30 11,7 C 71 % 1008,3 hPa 0,0 mm 8,0 km/h (2 Bft) O-SO 112 10 min 1 UV-I 199 W/m 25,7 km/h (4 Bft)
07.09.2010 08:40 12,4 C 70 % 1008,3 hPa 0,0 mm 8,0 km/h (2 Bft) O 90 10 min 1 UV-I 209 W/m 24,1 km/h (4 Bft)
07.09.2010 08:50 12,6 C 69 % 1008,3 hPa 0,0 mm 8,0 km/h (2 Bft) O 90 0 min 1 UV-I 163 W/m 24,1 km/h (4 Bft)
07.09.2010 09:00 12,7 C 69 % 1008,3 hPa 0,0 mm 9,7 km/h (2 Bft) O-SO 112 0 min 1 UV-I 162 W/m 24,1 km/h (4 Bft)
07.09.2010 09:10 12,7 C 68 % 1008,3 hPa 0,0 mm 8,0 km/h (2 Bft) O 90 0 min 1 UV-I 135 W/m 22,5 km/h (4 Bft)
07.09.2010 09:20 12,8 C 67 % 1008,2 hPa 0,0 mm 8,0 km/h (2 Bft) O 90 0 min 1 UV-I 163 W/m 24,1 km/h (4 Bft)
07.09.2010 09:30 12,9 C 68 % 1008,2 hPa 0,0 mm 8,0 km/h (2 Bft) O-SO 112 0 min 1 UV-I 163 W/m 25,7 km/h (4 Bft)
07.09.2010 09:40 13,0 C 67 % 1008,2 hPa 0,0 mm 8,0 km/h (2 Bft) O-SO 112 0 min 1 UV-I 135 W/m 25,7 km/h (4 Bft)
07.09.2010 09:50 12,9 C 67 % 1008,2 hPa 0,0 mm 9,7 km/h (2 Bft) O-SO 112 0 min 1 UV-I 116 W/m 20,9 km/h (4 Bft)
07.09.2010 10:00 12,9 C 68 % 1008,3 hPa 0,0 mm 6,4 km/h (2 Bft) O-SO 112 0 min 1 UV-I 114 W/m 22,5 km/h (4 Bft)
07.09.2010 10:10 13,0 C 68 % 1008,3 hPa 0,0 mm 8,0 km/h (2 Bft) O-SO 112 0 min 1 UV-I 132 W/m 25,7 km/h (4 Bft)
07.09.2010 10:20 13,2 C 68 % 1008,0 hPa 0,0 mm 6,4 km/h (2 Bft) O 90 0 min 1 UV-I 148 W/m 16,1 km/h (3 Bft)
07.09.2010 10:30 13,3 C 67 % 1008,1 hPa 0,0 mm 9,7 km/h (2 Bft) O-SO 112 0 min 2 UV-I 211 W/m 24,1 km/h (4 Bft)
07.09.2010 10:40 13,8 C 65 % 1008,0 hPa 0,0 mm 8,0 km/h (2 Bft) O 90 0 min 2 UV-I 297 W/m 24,1 km/h (4 Bft)
07.09.2010 10:50 14,4 C 64 % 1008,1 hPa 0,0 mm 8,0 km/h (2 Bft) O 90 10 min 2 UV-I 334 W/m 19,3 km/h (3 Bft)
07.09.2010 11:00 14,7 C 63 % 1008,0 hPa 0,0 mm 9,7 km/h (2 Bft) O 90 0 min 2 UV-I 267 W/m 22,5 km/h (4 Bft)
07.09.2010 11:10 14,7 C 63 % 1008,2 hPa 0,0 mm 6,4 km/h (2 Bft) O 90 0 min 2 UV-I 190 W/m 24,1 km/h (4 Bft)
07.09.2010 11:20 14,6 C 63 % 1008,2 hPa 0,0 mm 8,0 km/h (2 Bft) O-SO 112 0 min 1 UV-I 160 W/m 27,4 km/h (4 Bft)
07.09.2010 11:30 14,6 C 63 % 1008,1 hPa 0,0 mm 8,0 km/h (2 Bft) O-SO 112 0 min 1 UV-I 160 W/m 19,3 km/h (3 Bft)
07.09.2010 11:40 14,7 C 63 % 1008,1 hPa 0,0 mm 8,0 km/h (2 Bft) O 90 0 min 1 UV-I 139 W/m 22,5 km/h (4 Bft)
07.09.2010 11:50 14,8 C 63 % 1008,0 hPa 0,0 mm 4,8 km/h (1 Bft) O-SO 112 0 min 1 UV-I 142 W/m 16,1 km/h (3 Bft)
07.09.2010 12:00 15,1 C 63 % 1008,0 hPa 0,0 mm 6,4 km/h (2 Bft) O-SO 112 0 min 1 UV-I 144 W/m 19,3 km/h (3 Bft)
07.09.2010 12:10 15,1 C 62 % 1008,0 hPa 0,0 mm 4,8 km/h (1 Bft) O-SO 112 0 min 2 UV-I 158 W/m 17,7 km/h (3 Bft)
07.09.2010 12:20 15,2 C 62 % 1008,0 hPa 0,0 mm 3,2 km/h (1 Bft) O 90 0 min 1 UV-I 153 W/m 9,7 km/h (2 Bft)
07.09.2010 12:30 15,2 C 62 % 1007,9 hPa 0,0 mm 3,2 km/h (1 Bft) O 90 0 min 1 UV-I 111 W/m 17,7 km/h (3 Bft)
07.09.2010 12:40 15,1 C 62 % 1007,7 hPa 0,0 mm 3,2 km/h (1 Bft) O 90 0 min 1 UV-I 114 W/m 17,7 km/h (3 Bft)
07.09.2010 12:50 15,1 C 61 % 1007,4 hPa 0,0 mm 6,4 km/h (2 Bft) O 90 0 min 1 UV-I 120 W/m 17,7 km/h (3 Bft)
07.09.2010 13:00 15,3 C 62 % 1007,3 hPa 0,0 mm 4,8 km/h (1 Bft) O 90 0 min 1 UV-I 139 W/m 19,3 km/h (3 Bft)
07.09.2010 13:10 15,5 C 60 % 1007,2 hPa 0,0 mm 6,4 km/h (2 Bft) O-SO 112 0 min 2 UV-I 149 W/m 22,5 km/h (4 Bft)
07.09.2010 13:20 15,6 C 60 % 1006,9 hPa 0,0 mm 6,4 km/h (2 Bft) O 90 0 min 2 UV-I 167 W/m 17,7 km/h (3 Bft)
07.09.2010 13:30 15,8 C 59 % 1006,8 hPa 0,0 mm 8,0 km/h (2 Bft) O 90 0 min 2 UV-I 169 W/m 20,9 km/h (4 Bft)
07.09.2010 13:40 15,8 C 59 % 1006,8 hPa 0,0 mm 6,4 km/h (2 Bft) O 90 0 min 2 UV-I 162 W/m 17,7 km/h (3 Bft)
07.09.2010 13:50 15,8 C 59 % 1006,8 hPa 0,0 mm 8,0 km/h (2 Bft) O-SO 112 0 min 1 UV-I 142 W/m 17,7 km/h (3 Bft)
07.09.2010 14:00 15,8 C 59 % 1006,8 hPa 0,0 mm 6,4 km/h (2 Bft) O-SO 112 0 min 1 UV-I 142 W/m 16,1 km/h (3 Bft)
07.09.2010 14:10 15,9 C 59 % 1006,8 hPa 0,0 mm 8,0 km/h (2 Bft) O-SO 112 0 min 1 UV-I 127 W/m 22,5 km/h (4 Bft)
07.09.2010 14:20 15,9 C 59 % 1006,7 hPa 0,0 mm 4,8 km/h (1 Bft) O-SO 112 0 min 1 UV-I 130 W/m 16,1 km/h (3 Bft)
07.09.2010 14:30 16,0 C 59 % 1006,7 hPa 0,0 mm 4,8 km/h (1 Bft) O-SO 112 0 min 1 UV-I 135 W/m 14,5 km/h (3 Bft)
07.09.2010 14:40 16,1 C 62 % 1006,7 hPa 0,0 mm 4,8 km/h (1 Bft) O-SO 112 0 min 1 UV-I 128 W/m 17,7 km/h (3 Bft)
07.09.2010 14:50 16,0 C 62 % 1006,7 hPa 0,0 mm 6,4 km/h (2 Bft) O-SO 112 0 min 1 UV-I 120 W/m 22,5 km/h (4 Bft)
07.09.2010 15:00 15,8 C 66 % 1006,7 hPa 0,0 mm 3,2 km/h (1 Bft) O-SO 112 0 min 1 UV-I 118 W/m 9,7 km/h (2 Bft)
07.09.2010 15:10 15,8 C 66 % 1006,8 hPa 0,0 mm 1,6 km/h (1 Bft) SO 135 0 min 1 UV-I 128 W/m 8,0 km/h (2 Bft)
07.09.2010 15:20 15,7 C 65 % 1006,9 hPa 0,0 mm 3,2 km/h (1 Bft) SO 135 0 min 1 UV-I 118 W/m 14,5 km/h (3 Bft)
07.09.2010 15:30 15,4 C 66 % 1006,7 hPa 0,0 mm 3,2 km/h (1 Bft) O 90 0 min 1 UV-I 79 W/m 9,7 km/h (2 Bft)
07.09.2010 15:40 15,4 C 67 % 1006,6 hPa 0,0 mm 1,6 km/h (1 Bft) O 90 0 min 1 UV-I 104 W/m 9,7 km/h (2 Bft)
07.09.2010 15:50 15,3 C 70 % 1006,7 hPa 0,0 mm 1,6 km/h (1 Bft) O 90 0 min 1 UV-I 137 W/m 6,4 km/h (2 Bft)
07.09.2010 16:00 15,7 C 71 % 1006,7 hPa 0,0 mm 2,2 km/h (1 Bft) O 88 0 min 2 UV-I 194 W/m 8,0 km/h (2 Bft)
07.09.2010 16:10 15,8 C 70 % 1006,7 hPa 0,0 mm 1,6 km/h (1 Bft) O 90 0 min 2 UV-I 192 W/m 9,7 km/h (2 Bft)
07.09.2010 16:20 15,9 C 70 % 1006,6 hPa 0,0 mm 3,2 km/h (1 Bft) O 90 0 min 1 UV-I 149 W/m 14,5 km/h (3 Bft)
07.09.2010 16:30 16,0 C 69 % 1006,6 hPa 0,0 mm 3,2 km/h (1 Bft) O-SO 112 0 min 1 UV-I 162 W/m 11,3 km/h (2 Bft)
07.09.2010 16:40 16,2 C 68 % 1006,7 hPa 0,0 mm 3,2 km/h (1 Bft) O-SO 112 0 min 1 UV-I 158 W/m 14,5 km/h (3 Bft)
07.09.2010 16:50 16,2 C 69 % 1006,5 hPa 0,0 mm 4,8 km/h (1 Bft) O-SO 112 0 min 1 UV-I 128 W/m 14,5 km/h (3 Bft)
07.09.2010 17:00 16,2 C 68 % 1006,5 hPa 0,0 mm 6,4 km/h (2 Bft) O 90 0 min 1 UV-I 120 W/m 16,1 km/h (3 Bft)
07.09.2010 17:10 16,2 C 67 % 1006,5 hPa 0,0 mm 4,8 km/h (1 Bft) O-SO 112 0 min 1 UV-I 102 W/m 11,3 km/h (2 Bft)
07.09.2010 17:20 16,2 C 69 % 1006,6 hPa 0,0 mm 3,2 km/h (1 Bft) O 90 0 min 1 UV-I 69 W/m 14,5 km/h (3 Bft)
07.09.2010 17:30 16,1 C 68 % 1006,7 hPa 0,0 mm 1,6 km/h (1 Bft) O 90 0 min 1 UV-I 63 W/m 8,0 km/h (2 Bft)
07.09.2010 17:40 15,9 C 69 % 1006,8 hPa 0,0 mm 4,8 km/h (1 Bft) S-SO 157 0 min 0 UV-I 51 W/m 17,7 km/h (3 Bft)
07.09.2010 17:50 15,8 C 71 % 1006,7 hPa 0,0 mm 4,8 km/h (1 Bft) O-SO 112 0 min 0 UV-I 42 W/m 14,5 km/h (3 Bft)
07.09.2010 18:00 15,6 C 72 % 1006,7 hPa 0,0 mm 3,2 km/h (1 Bft) O-SO 112 0 min 0 UV-I 37 W/m 19,3 km/h (3 Bft)
07.09.2010 18:10 15,4 C 73 % 1006,7 hPa 0,0 mm 3,2 km/h (1 Bft) SO 135 0 min 0 UV-I 26 W/m 14,5 km/h (3 Bft)
07.09.2010 18:20 15,3 C 75 % 1006,8 hPa 0,0 mm 3,2 km/h (1 Bft) O 90 0 min 0 UV-I 23 W/m 9,7 km/h (2 Bft)
07.09.2010 18:30 15,1 C 76 % 1006,7 hPa 0,0 mm 4,8 km/h (1 Bft) O 90 0 min 0 UV-I 21 W/m 14,5 km/h (3 Bft)
07.09.2010 18:40 14,8 C 77 % 1006,7 hPa 0,0 mm 4,8 km/h (1 Bft) O 90 0 min 0 UV-I 19 W/m 19,3 km/h (3 Bft)
07.09.2010 18:50 14,7 C 76 % 1006,7 hPa 0,0 mm 3,2 km/h (1 Bft) O-SO 112 0 min 0 UV-I 28 W/m 12,9 km/h (3 Bft)
07.09.2010 19:00 14,8 C 75 % 1006,6 hPa 0,0 mm 4,8 km/h (1 Bft) O 90 0 min 0 UV-I 28 W/m 11,3 km/h (2 Bft)
07.09.2010 19:10 14,8 C 75 % 1006,4 hPa 0,0 mm 3,2 km/h (1 Bft) O 90 0 min 0 UV-I 19 W/m 11,3 km/h (2 Bft)
07.09.2010 19:20 14,7 C 74 % 1006,5 hPa 0,0 mm 3,2 km/h (1 Bft) O-SO 112 0 min 0 UV-I 12 W/m 9,7 km/h (2 Bft)
07.09.2010 19:30 14,7 C 73 % 1006,4 hPa 0,0 mm 3,2 km/h (1 Bft) O-SO 112 0 min 0 UV-I 5 W/m 11,3 km/h (2 Bft)
07.09.2010 19:40 14,7 C 73 % 1006,5 hPa 0,0 mm 1,6 km/h (1 Bft) O 90 0 min 0 UV-I 0 W/m 9,7 km/h (2 Bft)
07.09.2010 19:50 14,7 C 74 % 1006,5 hPa 0,0 mm 1,6 km/h (1 Bft) SO 135 0 min 0 UV-I 0 W/m 4,8 km/h (1 Bft)
07.09.2010 20:00 14,7 C 76 % 1006,4 hPa 0,0 mm 3,2 km/h (1 Bft) O-SO 112 0 min 0 UV-I 0 W/m 11,3 km/h (2 Bft)
07.09.2010 20:10 14,7 C 77 % 1006,4 hPa 0,0 mm 1,6 km/h (1 Bft) O 90 0 min 0 UV-I 0 W/m 8,0 km/h (2 Bft)
07.09.2010 20:20 14,6 C 77 % 1006,4 hPa 0,0 mm 3,2 km/h (1 Bft) O 90 0 min 0 UV-I 0 W/m 8,0 km/h (2 Bft)
07.09.2010 20:30 14,4 C 77 % 1006,3 hPa 0,0 mm 3,2 km/h (1 Bft) O 90 0 min 0 UV-I 0 W/m 9,7 km/h (2 Bft)
07.09.2010 20:40 14,4 C 77 % 1006,3 hPa 0,0 mm 3,2 km/h (1 Bft) O-SO 112 0 min 0 UV-I 0 W/m 8,0 km/h (2 Bft)
07.09.2010 20:50 14,4 C 77 % 1006,4 hPa 0,0 mm 3,2 km/h (1 Bft) O 90 0 min 0 UV-I 0 W/m 9,7 km/h (2 Bft)
07.09.2010 21:00 14,4 C 77 % 1006,4 hPa 0,0 mm 3,2 km/h (1 Bft) O-SO 112 0 min 0 UV-I 0 W/m 11,3 km/h (2 Bft)
07.09.2010 21:10 14,4 C 77 % 1006,4 hPa 0,0 mm 3,2 km/h (1 Bft) O-SO 112 0 min 0 UV-I 0 W/m 9,7 km/h (2 Bft)
07.09.2010 21:20 14,4 C 78 % 1006,2 hPa 0,0 mm 3,2 km/h (1 Bft) O 90 0 min 0 UV-I 0 W/m 11,3 km/h (2 Bft)
07.09.2010 21:30 14,4 C 78 % 1006,1 hPa 0,0 mm 3,2 km/h (1 Bft) O-SO 112 0 min 0 UV-I 0 W/m 9,7 km/h (2 Bft)
07.09.2010 21:40 14,4 C 78 % 1006,0 hPa 0,0 mm 3,2 km/h (1 Bft) O-SO 112 0 min 0 UV-I 0 W/m 8,0 km/h (2 Bft)
07.09.2010 21:50 14,4 C 78 % 1006,0 hPa 0,0 mm 4,8 km/h (1 Bft) O-SO 112 0 min 0 UV-I 0 W/m 11,3 km/h (2 Bft)
07.09.2010 22:00 14,4 C 77 % 1006,0 hPa 0,0 mm 3,2 km/h (1 Bft) O-SO 112 0 min 0 UV-I 0 W/m 11,3 km/h (2 Bft)
07.09.2010 22:10 14,4 C 77 % 1006,0 hPa 0,0 mm 5,8 km/h (2 Bft) O-SO 103 0 min 0 UV-I 0 W/m 9,7 km/h (2 Bft)
07.09.2010 22:20 14,5 C 76 % 1005,9 hPa 0,0 mm 3,2 km/h (1 Bft) O-SO 112 0 min 0 UV-I 0 W/m 12,9 km/h (3 Bft)
07.09.2010 22:30 14,6 C 75 % 1005,8 hPa 0,0 mm 3,9 km/h (1 Bft) O 94 0 min 0 UV-I 0 W/m 16,1 km/h (3 Bft)
07.09.2010 22:40 14,6 C 75 % 1005,6 hPa 0,0 mm 5,0 km/h (1 Bft) O-SO 105 0 min 0 UV-I 0 W/m 16,1 km/h (3 Bft)
07.09.2010 22:50 14,6 C 74 % 1005,6 hPa 0,0 mm 4,5 km/h (1 Bft) O 92 0 min 0 UV-I 0 W/m 16,1 km/h (3 Bft)
07.09.2010 23:00 14,7 C 74 % 1005,6 hPa 0,0 mm 4,7 km/h (1 Bft) O 84 0 min 0 UV-I 0 W/m 19,3 km/h (3 Bft)
07.09.2010 23:10 14,7 C 73 % 1005,5 hPa 0,0 mm 4,1 km/h (1 Bft) O 92 0 min 0 UV-I 0 W/m 16,1 km/h (3 Bft)
07.09.2010 23:20 14,7 C 73 % 1005,4 hPa 0,0 mm 4,8 km/h (1 Bft) O 90 0 min 0 UV-I 0 W/m 14,5 km/h (3 Bft)
07.09.2010 23:30 14,7 C 72 % 1005,2 hPa 0,0 mm 4,8 km/h (1 Bft) O-SO 112 0 min 0 UV-I 0 W/m 14,5 km/h (3 Bft)
07.09.2010 23:40 14,7 C 72 % 1005,2 hPa 0,0 mm 4,8 km/h (1 Bft) O-SO 112 0 min 0 UV-I 0 W/m 12,9 km/h (3 Bft)
07.09.2010 23:50 14,7 C 72 % 1005,1 hPa 0,0 mm 4,8 km/h (1 Bft) O-SO 112 0 min 0 UV-I 0 W/m 17,7 km/h (3 Bft)
_ Min-Zeit 05:00 13:30 23:50 - 04:40 - - - - - 19:50
Minimum _ 10,6 C 59 % 1005,1 hPa - 1,6 km/h (1 Bft) - - - - - 4,8 km/h (1 Bft)
_ Max-Zeit 16:50 21:20 00:00 00:00 08:10 - - 08:20 10:50 10:50 11:20
Maximum _ 16,3 C 78 % 1013,2 hPa 0,0 mm 9,7 km/h
O-SO (2 Bft)
- - 10 min 2 UV-I 334 W/m 27,4 km/h
O-SO (4 Bft)
Durchschnitt _ 13,6 C 70 % 1008,3 hPa #0,0 mm 5,4 km/h (1 Bft) O - #40 min. 1 UV-I 117 W/m 16,5 km/h (3 Bft)